Cedar Rapids, IA

7:11 PM CST on November 15, 2019 (GMT -0600)
The Eastern Iowa Airport

Weather History for KCID - September, 2019

Change the Weather History Date:

Wednesday, September 25, 2019

  Actual Average Record
Temperature  
Mean Temperature 66 °F 59 °F  
Max Temperature 74 °F 71 °F 93 °F (1920)
Min Temperature 58 °F 47 °F 29 °F (1928)
Degree Days  
Heating Degree Days 0 7  
Month to date heating degree days 18 96  
Since 1 July heating degree days 26 115  
Cooling Degree Days 1 1  
Month to date cooling degree days 125 67  
Year to date cooling degree days 777 735  
Growing Degree Days 16 (Base 50)    
Moisture  
Dew Point 59 °F    
Average Humidity 69    
Maximum Humidity 100    
Minimum Humidity 38    
Precipitation  
Precipitation 0.03 in 0.10 in 2.26 in (1993)
Month to date precipitation 4.82 2.70  
Year to date precipitation 32.67 28.00  
Sea Level Pressure  
Sea Level Pressure 29.76 in    
Wind  
Wind Speed 10 mph (WSW)    
Max Wind Speed 18 mph    
Max Gust Speed 26 mph    
Visibility 7 miles    
Events Fog , Rain , Thunderstorm    
T = Trace of Precipitation, MM = Missing Value Source: NWS Daily Summary

Daily Weather History Graph

Daily Weather History Graph

Search for Another Location

Airport or City:

Astronomy

Sep. 25, 2019 Rise Set
Actual Time 6:57 AM CDT 6:59 PM CDT
Civil Twilight 6:29 AM CDT 7:26 PM CDT
Nautical Twilight 5:56 AM CDT 7:59 PM CDT
Astronomical Twilight 5:23 AM CDT 8:32 PM CDT
Moon 2:46 AM CDT (9/25) 5:35 PM CDT (9/25)
Length of Visible Light 12h 57m
Length of Day
12h 02m
Waning Crescent, 14% of the Moon is Illuminated
Sep 25
Waning Crescent
Sep 28
New
Oct 5
First Quarter
Oct 13
Full
Oct 21
Last Quarter

Hourly Weather History & Observations

Time (CDT) Temp. Dew Point Humidity Pressure Visibility Wind Dir Wind Speed Gust Speed Precip Events Conditions
12:39 AM 64.0 °F 63.0 °F 96% 29.71 in 10.0 mi SSW 9.2 mph - 0.02 in Rain , Thunderstorm Light Thunderstorms and Rain
12:52 AM 64.0 °F 63.0 °F 96% 29.74 in 1.5 mi West 15.0 mph - 0.18 in Rain , Thunderstorm Heavy Thunderstorms and Rain
12:55 AM 64.0 °F 63.0 °F 96% 29.76 in 0.8 mi West 9.2 mph 19.6 mph 0.17 in Rain , Thunderstorm Heavy Thunderstorms and Rain
1:08 AM 63.0 °F 63.0 °F 100% 29.70 in 2.0 mi SSE 8.1 mph - 0.25 in Rain , Thunderstorm Light Thunderstorms and Rain
1:10 AM 63.0 °F 63.0 °F 100% 29.70 in 4.0 mi SSE 8.1 mph - 0.26 in Rain , Thunderstorm Light Thunderstorms and Rain
1:19 AM 63.0 °F 63.0 °F 100% 29.69 in 9.0 mi SSE 6.9 mph - 0.26 in Rain Light Rain
1:52 AM 64.0 °F 63.0 °F 96% 29.68 in 10.0 mi South 11.5 mph - 0.26 in   Mostly Cloudy
2:00 AM 64.0 °F 63.0 °F 96% 29.71 in 10.0 mi South 13.8 mph - 0.00 in Rain Light Rain
2:15 AM 64.0 °F 63.0 °F 96% 29.68 in 8.0 mi SSW 9.2 mph - 0.01 in Rain Light Rain
2:43 AM 64.0 °F 64.0 °F 100% 29.68 in 10.0 mi South 12.7 mph - 0.01 in   Overcast
2:49 AM 64.4 °F 64.4 °F 100% 29.68 in 10.0 mi South 11.5 mph - 0.01 in   Overcast
2:52 AM 64.0 °F 64.0 °F 100% 29.66 in 10.0 mi South 10.4 mph - 0.01 in   Overcast
3:52 AM 64.0 °F 64.0 °F 100% 29.65 in 9.0 mi SSW 5.8 mph - N/A   Overcast
4:48 AM 64.4 °F 64.4 °F 100% 29.70 in 8.0 mi SSW 4.6 mph - N/A   Overcast
4:52 AM 64.0 °F 64.0 °F 100% 29.68 in 8.0 mi SW 5.8 mph - N/A   Mostly Cloudy
5:14 AM 63.0 °F 63.0 °F 100% 29.70 in 5.0 mi SW 4.6 mph - N/A   Partly Cloudy
5:32 AM 62.1 °F 62.1 °F 100% 29.70 in 1.8 mi SW 4.6 mph - N/A   Clear
5:39 AM 62.1 °F 62.1 °F 100% 29.71 in 0.8 mi SW 4.6 mph - N/A   Clear
5:52 AM 61.0 °F 61.0 °F 100% 29.70 in 0.5 mi SSW 4.6 mph - N/A Fog Fog
5:59 AM 60.8 °F 60.8 °F 100% 29.71 in 0.2 mi Calm Calm - N/A Fog Fog
6:32 AM 60.1 °F 60.1 °F 100% 29.72 in 1.0 mi West 6.9 mph - N/A   Mist
6:34 AM 60.1 °F 60.1 °F 100% 29.72 in 2.0 mi West 6.9 mph - N/A   Partly Cloudy
6:41 AM 60.1 °F 60.1 °F 100% 29.73 in 6.0 mi West 6.9 mph - N/A   Clear
6:52 AM 60.1 °F 60.1 °F 100% 29.72 in 9.0 mi West 5.8 mph - N/A   Clear
7:52 AM 61.0 °F 61.0 °F 100% 29.73 in 8.0 mi West 6.9 mph - N/A   Clear
8:52 AM 64.9 °F 62.1 °F 90% 29.76 in 10.0 mi WNW 10.4 mph - N/A   Clear
9:52 AM 66.9 °F 57.9 °F 73% 29.78 in 10.0 mi WNW 10.4 mph - N/A   Clear
10:52 AM 68.0 °F 57.9 °F 70% 29.81 in 10.0 mi NW 18.4 mph - N/A   Clear
11:52 AM 71.1 °F 57.0 °F 61% 29.81 in 10.0 mi NW 13.8 mph - N/A   Clear
12:52 PM 71.1 °F 53.1 °F 53% 29.80 in 10.0 mi NW 13.8 mph - N/A   Clear
1:52 PM 72.0 °F 52.0 °F 49% 29.79 in 10.0 mi WNW 13.8 mph - N/A   Clear
2:52 PM 73.0 °F 46.0 °F 38% 29.80 in 10.0 mi NW 12.7 mph - N/A   Clear
3:52 PM 69.1 °F 45.0 °F 42% 29.82 in 10.0 mi WNW 13.8 mph - N/A   Clear
4:52 PM 68.0 °F 48.0 °F 49% 29.84 in 10.0 mi NW 13.8 mph - N/A   Overcast
5:52 PM 66.0 °F 51.1 °F 59% 29.85 in 10.0 mi WNW 11.5 mph - N/A   Scattered Clouds
6:52 PM 64.0 °F 52.0 °F 65% 29.86 in 10.0 mi WNW 8.1 mph - N/A   Overcast
7:52 PM 62.1 °F 54.0 °F 75% 29.88 in 10.0 mi West 8.1 mph - N/A   Overcast
8:52 PM 62.1 °F 53.1 °F 72% 29.90 in 10.0 mi West 8.1 mph - N/A   Overcast
9:52 PM 61.0 °F 52.0 °F 72% 29.92 in 10.0 mi WNW 11.5 mph - N/A   Overcast
10:52 PM 60.1 °F 52.0 °F 75% 29.94 in 10.0 mi WNW 9.2 mph - N/A   Overcast
11:52 PM 59.0 °F 50.0 °F 72% 29.95 in 10.0 mi NW 10.4 mph - N/A   Scattered Clouds